EW7146 Weather Reports


time (UTC)temp
C
wind
direction
speed
KPH
gust
KPH
rain 1hr
cm
rain 24hr
cm
rain mn
cm
humidity
%
barometer
mb
20260504050500 16 209 1.6 6.4 0.00 0.00 0.00 42 1022.6
20260504050001 16 137 3.2 6.4 0.00 0.00 0.00 42 1022.5
20260504045459 16 157 0.0 8.0 0.00 0.00 0.00 42 1022.4
20260504045001 16 289 4.8 8.0 0.00 0.00 0.00 43 1022.4
20260504044500 16 104 0.0 3.2 0.00 0.00 0.00 39 1022.3
20260504044000 17 244 0.0 3.2 0.00 0.00 0.00 39 1022.2
20260504043500 17 248 1.6 3.2 0.00 0.00 0.00 38 1022.2
20260504043000 17 234 1.6 4.8 0.00 0.00 0.00 39 1022.2
20260504042943 16 285 3.2 4.8 0.00 0.00 0.00 40 1022.1
20260504041959 16 221 1.6 3.2 0.00 0.00 0.00 41 1022.1
20260504041501 17 241 0.0 3.2 0.00 0.00 0.00 39 1022.1
20260504041000 16 238 1.6 3.2 0.00 0.00 0.00 40 1021.9
20260504040500 16 233 0.0 1.6 0.00 0.00 0.00 40 1022.0
20260504040224 17 231 0.0 3.2 0.00 0.00 0.00 40 1022.0
20260504035726 17 231 0.0 3.2 0.00 0.00 0.00 41 1021.9
20260504034958 17 234 0.0 1.6 0.00 0.00 0.00 41 1021.9
20260504034459 17 234 0.0 1.6 0.00 0.00 0.00 41 1021.8
20260504033959 17 4 0.0 3.2 0.00 0.00 0.00 40 1021.7
20260504033458 18 4 0.0 3.2 0.00 0.00 0.00 38 1021.6
20260504033002 18 223 0.0 1.6 0.00 0.00 0.00 37 1021.6
20260504032724 18 226 0.0 1.6 0.00 0.00 0.00 37 1021.6
20260504032000 18 238 0.0 1.6 0.00 0.00 0.00 39 1021.5
20260504031457 18 234 0.0 1.6 0.00 0.00 0.00 39 1021.4
20260504031218 19 254 0.0 0.0 0.00 0.00 0.00 37 1021.3
20260504030502 19 254 0.0 1.6 0.00 0.00 0.00 35 1021.3
20260504025958 20 254 0.0 1.6 0.00 0.00 0.00 35 1021.3
20260504025457 20 298 0.0 1.6 0.00 0.00 0.00 33 1021.1
20260504025217 21 271 0.0 1.6 0.00 0.00 0.00 32 1021.0
20260504024458 21 228 0.0 1.6 0.00 0.00 0.00 32 1021.0
20260504023958 21 228 1.6 1.6 0.00 0.00 0.00 32 1021.0
20260504023458 22 237 0.0 1.6 0.00 0.00 0.00 30 1021.0
20260504023214 23 237 1.6 3.2 0.00 0.00 0.00 29 1020.9
20260504022456 23 254 0.0 3.2 0.00 0.00 0.00 27 1020.9
20260504021957 25 254 0.0 3.2 0.00 0.00 0.00 27 1020.9
20260504021717 25 247 1.6 3.2 0.00 0.00 0.00 27 1021.0
20260504021219 26 254 0.0 3.2 0.00 0.00 0.00 26 1021.0
20260504020726 26 269 0.0 8.0 0.00 0.00 0.00 26 1021.1
20260504015958 27 275 1.6 9.7 0.00 0.00 0.00 23 1021.1
20260504015456 27 289 6.4 9.7 0.00 0.00 0.00 20 1021.1
20260504014958 27 241 4.8 8.0 0.00 0.00 0.00 20 1021.1
20260504014456 28 269 1.6 4.8 0.00 0.00 0.00 21 1021.1
20260504013955 28 285 1.6 14.5 0.00 0.00 0.00 21 1021.1
20260504013719 28 269 3.2 14.5 0.00 0.00 0.00 21 1021.1
20260504012955 28 276 1.6 8.0 0.00 0.00 0.00 19 1021.1
20260504012456 28 254 1.6 11.3 0.00 0.00 0.00 19 1021.1
20260504011955 28 282 1.6 11.3 0.00 0.00 0.00 19 1021.1
20260504011457 28 262 0.0 8.0 0.00 0.00 0.00 19 1021.3
20260504010955 29 285 3.2 8.0 0.00 0.00 0.00 19 1021.3
20260504010457 29 316 3.2 8.0 0.00 0.00 0.00 17 1021.3
20260504010007 29 274 1.6 14.5 0.00 0.00 0.00 18 1021.3
20260504005455 28 305 3.2 17.7 0.00 0.00 0.00 17 1021.4
20260504004955 28 266 4.8 17.7 0.00 0.00 0.00 17 1021.4
20260504004713 29 281 3.2 14.5 0.00 0.00 0.00 17 1021.5
20260504003955 29 282 6.4 14.5 0.00 0.00 0.00 17 1021.5
20260504003455 29 307 6.4 14.5 0.00 0.00 0.00 17 1021.6
20260504002956 29 272 3.2 11.3 0.00 0.00 0.00 18 1021.6
20260504002453 29 316 3.2 8.0 0.00 0.00 0.00 16 1021.6
20260504001955 29 32 1.6 9.7 0.00 0.00 0.00 18 1021.6
20260504001454 29 264 1.6 17.7 0.00 0.00 0.00 17 1021.6
20260504000954 28 255 6.4 17.7 0.00 0.00 0.00 17 1021.7
20260504000454 29 252 6.4 16.1 0.00 0.00 0.00 17 1021.7
20260503235954 29 262 9.7 16.1 0.00 0.00 0.00 16 1021.7
20260503235454 29 278 6.4 14.5 0.00 0.00 0.00 16 1021.8
20260503234954 29 235 1.6 14.5 0.00 0.00 0.00 18 1021.8
20260503234454 29 290 3.2 14.5 0.00 0.00 0.00 16 1021.8
20260503234218 29 251 0.0 9.7 0.00 0.00 0.00 18 1021.9
20260503233711 29 299 4.8 14.5 0.00 0.00 0.00 17 1022.0
20260503232952 29 279 6.4 16.1 0.00 0.00 0.00 16 1021.9
20260503232453 29 269 8.0 16.1 0.00 0.00 0.00 16 1022.0
20260503231957 29 262 4.8 14.5 0.00 0.00 0.00 16 1022.1
20260503231456 29 268 8.0 11.3 0.00 0.00 0.00 16 1022.2
20260503230953 29 290 4.8 17.7 0.00 0.00 0.00 17 1022.2
20260503230453 29 266 6.4 17.7 0.00 0.00 0.00 16 1022.3
20260503225953 30 337 0.0 8.0 0.00 0.00 0.00 16 1022.3
20260503225452 30 100 0.0 8.0 0.00 0.00 0.00 17 1022.4
20260503224952 29 233 0.0 8.0 0.00 0.00 0.00 18 1022.5
20260503224452 29 214 4.8 14.5 0.00 0.00 0.00 16 1022.6
20260503223951 29 333 6.4 14.5 0.00 0.00 0.00 15 1022.7
20260503223452 30 281 3.2 8.0 0.00 0.00 0.00 17 1022.9
20260503222951 30 245 3.2 8.0 0.00 0.00 0.00 16 1023.0
20260503222453 30 319 3.2 9.7 0.00 0.00 0.00 17 1023.0
20260503221951 29 20 3.2 11.3 0.00 0.00 0.00 17 1023.0
20260503221453 29 347 1.6 11.3 0.00 0.00 0.00 17 1023.1
20260503220952 29 69 1.6 9.7 0.00 0.00 0.00 17 1023.2
20260503220450 30 283 3.2 9.7 0.00 0.00 0.00 18 1023.3
20260503215951 29 355 1.6 6.4 0.00 0.00 0.00 16 1023.4
20260503215934 28 289 3.2 9.7 0.00 0.00 0.00 15 1023.3
20260503215218 28 133 1.6 9.7 0.00 0.00 0.00 16 1023.4
20260503214711 29 10 3.2 9.7 0.00 0.00 0.00 15 1023.5
20260503213952 29 44 3.2 6.4 0.00 0.00 0.00 16 1023.7
20260503213451 29 298 1.6 9.7 0.00 0.00 0.00 17 1023.7
20260503212952 29 343 3.2 14.5 0.00 0.00 0.00 18 1023.6
20260503212932 29 254 6.4 14.5 0.00 0.00 0.00 16 1023.9
20260503211949 28 324 0.0 9.7 0.00 0.00 0.00 19 1023.7
20260503211449 28 159 3.2 11.3 0.00 0.00 0.00 16 1023.7
20260503210949 28 306 1.6 11.3 0.00 0.00 0.00 17 1023.9
20260503210450 28 268 1.6 6.4 0.00 0.00 0.00 17 1023.9
20260503205949 28 348 0.0 4.8 0.00 0.00 0.00 18 1024.0
20260503205450 28 302 0.0 11.3 0.00 0.00 0.00 17 1024.0
20260503205211 28 80 4.8 11.3 0.00 0.00 0.00 18 1024.1
20260503204451 28 49 4.8 9.7 0.00 0.00 0.00 19 1024.1
20260503203948 28 37 1.6 8.0 0.00 0.00 0.00 19 1024.2
20260503203713 28 44 6.4 11.3 0.00 0.00 0.00 19 1024.4
20260503202946 28 62 4.8 11.3 0.00 0.00 0.00 18 1024.5
20260503202448 28 48 1.6 11.3 0.00 0.00 0.00 17 1024.5
20260503201950 28 72 6.4 11.3 0.00 0.00 0.00 19 1024.6
20260503201453 27 79 1.6 11.3 0.00 0.00 0.00 21 1024.7
20260503200950 27 272 3.2 9.7 0.00 0.00 0.00 18 1024.8
20260503200454 28 109 1.6 8.0 0.00 0.00 0.00 20 1025.0
20260503195948 27 127 0.0 6.4 0.00 0.00 0.00 20 1025.0
20260503195448 27 100 3.2 6.4 0.00 0.00 0.00 18 1025.1
20260503195216 27 353 1.6 6.4 0.00 0.00 0.00 19 1025.2
20260503194447 26 94 4.8 11.3 0.00 0.00 0.00 19 1025.4
20260503193947 26 125 4.8 11.3 0.00 0.00 0.00 19 1025.5
20260503193449 27 63 4.8 9.7 0.00 0.00 0.00 19 1025.5
20260503192947 27 90 6.4 9.7 0.00 0.00 0.00 19 1025.6
20260503192448 27 103 6.4 9.7 0.00 0.00 0.00 21 1025.6
20260503191947 26 63 4.8 9.7 0.00 0.00 0.00 21 1025.7
20260503191447 26 106 4.8 9.7 0.00 0.00 0.00 22 1025.7
20260503190947 26 111 3.2 8.0 0.00 0.00 0.00 20 1025.8
20260503190443 26 56 3.2 8.0 0.00 0.00 0.00 22 1026.0
20260503185947 26 110 3.2 8.0 0.00 0.00 0.00 21 1026.1
20260503185713 26 73 3.2 8.0 0.00 0.00 0.00 22 1026.2
20260503184947 26 62 1.6 4.8 0.00 0.00 0.00 25 1026.2
20260503184446 25 28 0.0 4.8 0.00 0.00 0.00 27 1026.3
20260503183948 25 65 1.6 4.8 0.00 0.00 0.00 25 1026.4
20260503183445 25 18 0.0 6.4 0.00 0.00 0.00 28 1026.5
20260503182946 24 128 0.0 6.4 0.00 0.00 0.00 28 1026.6
20260503182446 24 82 3.2 4.8 0.00 0.00 0.00 30 1026.6
20260503181945 23 134 1.6 3.2 0.00 0.00 0.00 30 1026.7
20260503181446 23 104 1.6 4.8 0.00 0.00 0.00 30 1026.8
20260503181206 23 134 1.6 4.8 0.00 0.00 0.00 32 1026.9
20260503180447 23 90 0.0 4.8 0.00 0.00 0.00 34 1026.9
20260503175946 22 79 1.6 4.8 0.00 0.00 0.00 33 1027.0
20260503175447 22 292 1.6 3.2 0.00 0.00 0.00 33 1027.1
20260503174945 22 330 1.6 3.2 0.00 0.00 0.00 36 1027.2
20260503174445 21 72 0.0 3.2 0.00 0.00 0.00 36 1027.2
20260503173942 21 68 1.6 3.2 0.00 0.00 0.00 34 1027.3
20260503173441 21 307 0.0 3.2 0.00 0.00 0.00 35 1027.5
20260503172943 21 106 0.0 4.8 0.00 0.00 0.00 35 1027.6
20260503172444 20 34 0.0 6.4 0.00 0.00 0.00 36 1027.6
20260503171946 20 13 3.2 6.4 0.00 0.00 0.00 36 1027.8
20260503171444 20 290 0.0 4.8 0.00 0.00 0.00 37 1027.8
20260503171208 20 38 3.2 4.8 0.00 0.00 0.00 39 1027.8
20260503170444 19 298 1.6 3.2 0.00 0.00 0.00 40 1027.8
20260503170205 19 276 1.6 4.8 0.00 0.00 0.00 40 1027.9
20260503150942 12 144 0.0 0.0 0.00 0.00 0.00 65 1029.4
20260503150443 12 144 0.0 0.0 0.00 0.00 0.00 66 1029.5
20260503140155 5 52 0.0 0.0 0.00 0.00 0.00 86 1029.7
20260503130937 3 227 0.0 0.0 0.00 0.00 0.00 90 1029.6
20260503130658 3 227 0.0 0.0 0.00 0.00 0.00 89 1029.7
20260503130532 3 227 0.0 0.0 0.00 0.00 0.00 90 1029.7
20260503110437 5 224 0.0 0.0 0.00 0.00 0.00 82 1029.7
20260503090433 8 210 0.0 0.0 0.00 0.00 0.00 72 1029.5
20260503080949 9 216 0.0 0.0 0.00 0.00 0.00 70 1029.3
20260503080808 9 210 0.0 0.0 0.00 0.00 0.00 69 1029.4
20260503072932 10 202 0.0 0.0 0.00 0.00 0.00 68 1029.3
20260503072654 10 199 0.0 0.0 0.00 0.00 0.00 68 1029.2
20260503071933 10 219 0.0 0.0 0.00 0.00 0.00 68 1029.1
20260503071431 10 199 0.0 0.0 0.00 0.00 0.00 67 1029.1
20260503071159 10 204 0.0 0.0 0.00 0.00 0.00 67 1029.3
20260503070430 10 196 0.0 0.0 0.00 0.00 0.00 66 1029.2
20260503070153 10 199 0.0 0.0 0.00 0.00 0.00 66 1029.1